Location: Newark
(46.7000°N, 60.6000°W)
Time: 14:12:27
(UTC+00:00)

A-11 Canister half - Visible Passes

Search period start: 31 October 2020 00:00
Search period end: 10 November 2020 00:00
Orbit: 1515 x 1685 km, 47.2° (Epoch: 30 October)

Date Brightness Start Highest point End Pass type
(mag) Time Alt. Az. Time Alt. Az. Time Alt. Az.
31 Oct 10.4 01:51:38 10° W 01:55:28 27° W 01:55:28 27° W visible
31 Oct 10.2 21:23:01 10° S 21:30:23 23° SE 21:37:35 10° E visible
31 Oct 9.1 23:24:03 10° SW 23:33:58 60° SSE 23:35:47 54° ESE visible
01 Nov 10.0 01:28:40 10° W 01:34:00 37° W 01:34:00 37° W visible
01 Nov 9.2 23:01:12 10° SW 23:11:03 58° SSE 23:14:18 43° E visible
02 Nov 9.6 01:05:41 10° W 01:12:30 49° W 01:12:30 49° W visible
02 Nov 9.3 22:38:20 10° SW 22:48:08 56° SSE 22:52:44 33° E visible
03 Nov 9.3 00:42:42 10° WSW 00:50:56 64° WSW 00:50:56 64° WSW visible
03 Nov 11.1 02:48:05 10° W 02:49:08 14° W 02:49:08 14° W visible
03 Nov 9.4 22:15:30 10° SW 22:25:14 54° SE 22:31:08 26° E visible
04 Nov 9.0 00:19:44 10° WSW 00:29:20 81° WSW 00:29:20 81° WSW visible
04 Nov 10.8 02:25:06 10° W 02:27:32 20° W 02:27:32 20° W visible
04 Nov 9.4 21:52:40 10° SW 22:02:20 51° SE 22:09:29 20° ENE visible
04 Nov 8.9 23:56:46 10° WSW 00:07:00 87° SSE 00:07:41 80° E visible
05 Nov 10.5 02:02:07 10° W 02:05:53 27° W 02:05:53 27° W visible
05 Nov 9.5 21:29:51 10° SSW 21:39:26 49° SE 21:47:49 14° ENE visible
05 Nov 9.0 23:33:48 10° WSW 23:44:02 86° SSE 23:46:00 64° E visible
06 Nov 10.2 01:39:09 10° W 01:44:12 35° W 01:44:12 35° W visible
06 Nov 9.6 21:07:03 10° SSW 21:16:33 47° SE 21:26:00 10° ENE visible
06 Nov 9.0 23:10:51 10° WSW 23:21:05 85° SSE 23:24:19 51° E visible
07 Nov 9.8 01:16:11 10° W 01:22:30 45° W 01:22:30 45° W visible
07 Nov 9.1 22:47:54 10° WSW 22:58:07 83° SSE 23:02:35 40° E visible
08 Nov 9.5 00:53:12 10° W 01:00:47 57° W 01:00:47 57° W visible
08 Nov 11.2 02:58:28 10° WNW 02:58:58 12° WNW 02:58:58 12° WNW visible
08 Nov 9.1 22:24:57 10° WSW 22:35:10 82° SSE 22:40:51 31° E visible
09 Nov 9.2 00:30:13 10° W 00:39:03 71° W 00:39:03 71° W visible
09 Nov 11.0 02:35:29 10° WNW 02:37:14 17° WNW 02:37:14 17° WNW visible
09 Nov 9.2 22:02:01 10° WSW 22:12:12 80° SSE 22:19:07 24° ENE visible
